^^
Station Historical Data
 
Daily Summary for August 21, 2019 Units:  English    Metric   Both
« Previous Day
Next Day »
Daily Weekly Monthly Yearly Custom
  Current: High: Low: Average:
Temperature: 72.6 °F 73.1 °F 59.9 °F 65.4 °F
Dew Point: 48.9 °F 63.2 °F 48.5 °F 58.4 °F
Humidity: 43% 93% 43% 80%
Wind Speed: 5mph 6mph 0mph 0.8mph
Wind Gust: 9mph 12mph - -
WindNorth - - NW
Pressure: 30.00 in 30.02 in 29.90 in -
Precipitation: 0.01 in      
Historical Graphs
 
 
Tabular Data for August 21, 2019
Time Temperature Dew Point Pressure Wind Wind Speed Wind Gust Humidity Rainfall Rate (Hourly) solar Conditions
00:00 66.8 °F 63.2 °F 29.94 in Calm     88% 0 in 0.00 W/m2 RA
00:05 66.8 °F 63.2 °F 29.94 in Calm     88% 0 in 0.00 W/m2 RA
00:10 66.7 °F 63.1 °F 29.94 in Calm     88% 0 in 0.00 W/m2 SCT
00:15 66.8 °F 63.1 °F 29.94 in Calm     88% 0 in 0.00 W/m2 SCT
00:20 66.7 °F 63 °F 29.94 in Calm     88% 0 in 0.00 W/m2 SCT
00:25 66.6 °F 62.9 °F 29.95 in Calm     88% 0 in 0.00 W/m2 SCT
00:30 66.4 °F 62.7 °F 29.95 in Calm     88% 0 in 0.00 W/m2 SCT
00:35 66.3 °F 62.6 °F 29.95 in Calm     88% 0 in 0.00 W/m2 SCT
00:40 66.3 °F 62.6 °F 29.95 in Calm     88% 0 in 0.00 W/m2 SCT
00:45 66.1 °F 62.5 °F 29.95 in Calm     88% 0 in 0.00 W/m2 SCT
00:50 66 °F 62.3 °F 29.95 in Calm     88% 0 in 0.00 W/m2 SCT
00:55 65.8 °F 62.1 °F 29.96 in Calm     88% 0 in 0.00 W/m2 SCT
01:00 65.8 °F 62.1 °F 29.96 in Calm     88% 0 in 0.00 W/m2 SCT
01:05 65.8 °F 62.1 °F 29.96 in Calm     88% 0 in 0.00 W/m2 CLR
01:10 65.8 °F 62.1 °F 29.96 in Calm     88% 0 in 0.00 W/m2 CLR
01:15 65.7 °F 62 °F 29.96 in Calm     88% 0 in 0.00 W/m2 CLR
01:20 65.7 °F 62 °F 29.96 in Calm     88% 0 in 0.00 W/m2 CLR
01:25 65.6 °F 61.9 °F 29.96 in Calm     88% 0 in 0.00 W/m2 CLR
01:30 65.7 °F 62 °F 29.96 in Calm     88% 0 in 0.00 W/m2 CLR
01:35 65.6 °F 61.9 °F 29.96 in Calm     88% 0 in 0.00 W/m2 CLR
01:40 65.6 °F 61.9 °F 29.96 in Calm   1 mph 88% 0 in 0.00 W/m2 CLR
01:45 65.6 °F 62 °F 29.96 in Calm   1 mph 88% 0 in 0.00 W/m2 CLR
01:50 65.9 °F 62.2 °F 29.96 in Calm   2 mph 88% 0 in 0.00 W/m2 CLR
01:55 66 °F 62.3 °F 29.96 in Calm   5 mph 88% 0 in 0.00 W/m2 CLR
02:00 65.9 °F 62.2 °F 29.96 in Calm     88% 0 in 0.00 W/m2 CLR
02:05 65.9 °F 62.2 °F 29.96 in Calm     88% 0 in 0.00 W/m2 CLR
02:10 65.9 °F 62.2 °F 29.96 in Calm   3 mph 88% 0 in 0.00 W/m2 CLR
02:15 65.8 °F 62.1 °F 29.95 in NNW 1 mph 3 mph 88% 0 in 0.00 W/m2 CLR
02:20 65.7 °F 62 °F 29.95 in Calm   6 mph 88% 0 in 0.00 W/m2 CLR
02:25 65.5 °F 61.9 °F 29.96 in Calm   5 mph 88% 0 in 0.00 W/m2 CLR
02:30 65.4 °F 61.8 °F 29.96 in Calm   4 mph 88% 0 in 0.00 W/m2 CLR
02:35 65.3 °F 61.7 °F 29.96 in Calm     88% 0 in 0.00 W/m2 CLR
02:40 65.2 °F 61.6 °F 29.96 in Calm   1 mph 88% 0 in 0.00 W/m2 CLR
02:45 65 °F 61.4 °F 29.96 in Calm   1 mph 88% 0 in 0.00 W/m2 CLR
02:50 64.9 °F 61.3 °F 29.96 in Calm     88% 0 in 0.00 W/m2 CLR
02:55 64.7 °F 61.1 °F 29.96 in Calm   1 mph 88% 0 in 0.00 W/m2 CLR
03:00 64.5 °F 60.9 °F 29.95 in Calm   1 mph 88% 0 in 0.00 W/m2 CLR
03:05 64.3 °F 60.7 °F 29.95 in Calm     88% 0 in 0.00 W/m2 CLR
03:10 64.2 °F 60.6 °F 29.95 in Calm     88% 0 in 0.00 W/m2 CLR
03:15 64.1 °F 60.5 °F 29.95 in Calm     88% 0 in 0.00 W/m2 CLR
03:20 64 °F 60.4 °F 29.96 in Calm     88% 0 in 0.00 W/m2 CLR
03:25 64 °F 60.4 °F 29.96 in Calm     88% 0 in 0.00 W/m2 CLR
03:30 63.9 °F 60.3 °F 29.95 in Calm   1 mph 88% 0 in 0.00 W/m2 CLR
03:35 63.8 °F 60.2 °F 29.95 in Calm   3 mph 88% 0 in 0.00 W/m2 CLR
03:40 63.7 °F 60.1 °F 29.96 in Calm   2 mph 88% 0 in 0.00 W/m2 CLR
03:45 63.7 °F 60.1 °F 29.95 in Calm     88% 0 in 0.00 W/m2 CLR
03:50 63.5 °F 59.9 °F 29.95 in Calm     88% 0 in 0.00 W/m2 CLR
03:55 63.5 °F 59.9 °F 29.94 in Calm     88% 0 in 0.00 W/m2 CLR
04:00 63.4 °F 59.8 °F 29.93 in Calm     88% 0 in 0.00 W/m2 CLR
04:05 63.2 °F 59.6 °F 29.93 in Calm     88% 0 in 0.00 W/m2 SCT
04:10 63.1 °F 59.5 °F 29.92 in Calm     88% 0 in 0.00 W/m2 SCT
04:15 63 °F 59.4 °F 29.92 in NW 1 mph 8 mph 88% 0 in 0.00 W/m2 SCT
04:20 62.9 °F 59.3 °F 29.92 in NW 1 mph 5 mph 88% 0 in 0.00 W/m2 SCT
04:25 62.8 °F 59.2 °F 29.92 in NW 2 mph 8 mph 88% 0 in 0.00 W/m2 SCT
04:30 62.7 °F 59.1 °F 29.91 in Calm   5 mph 88% 0 in 0.00 W/m2 SCT
04:35 62.7 °F 59.1 °F 29.91 in Calm   3 mph 88% 0 in 0.00 W/m2 SCT
04:40 62.6 °F 59 °F 29.91 in Calm   4 mph 88% 0 in 0.00 W/m2 SCT
04:45 62.5 °F 58.9 °F 29.90 in NNW 1 mph 8 mph 88% 0 in 0.00 W/m2 SCT
04:50 62.4 °F 58.8 °F 29.90 in Calm   3 mph 88% 0 in 0.00 W/m2 SCT
04:55 62.3 °F 58.7 °F 29.90 in Calm   4 mph 88% 0 in 0.00 W/m2 SCT
05:00 62.2 °F 58.6 °F 29.90 in NNW 3 mph 8 mph 88% 0 in 0.00 W/m2 SCT
05:05 62.2 °F 60.2 °F 29.90 in NNW 1 mph 4 mph 93% 0 in 0.00 W/m2 CLR
05:10 62.1 °F 60.1 °F 29.91 in Calm   3 mph 93% 0 in 0.00 W/m2 CLR
05:15 62 °F 60 °F 29.91 in Calm     93% 0 in 0.00 W/m2 CLR
05:20 61.9 °F 59.9 °F 29.92 in Calm     93% 0 in 0.00 W/m2 CLR
05:25 61.7 °F 59.7 °F 29.93 in Calm     93% 0 in 0.00 W/m2 CLR
05:30 61.6 °F 59.6 °F 29.94 in Calm     93% 0 in 0.00 W/m2 CLR
05:35 61.6 °F 59.6 °F 29.95 in Calm     93% 0 in 0.00 W/m2 CLR
05:40 61.4 °F 59.4 °F 29.96 in Calm     93% 0 in 0.00 W/m2 CLR
05:45 61.4 °F 59.4 °F 29.96 in Calm     93% 0 in 0.00 W/m2 CLR
05:50 61.2 °F 59.2 °F 29.97 in Calm     93% 0 in 0.00 W/m2 CLR
05:55 61.1 °F 59.1 °F 29.97 in Calm     93% 0 in 0.00 W/m2 CLR
06:00 60.9 °F 58.9 °F 29.98 in Calm     93% 0 in 0.00 W/m2 CLR
06:05 60.8 °F 56.9 °F 29.98 in Calm     87% 0 in 0.00 W/m2 CLR
06:10 60.7 °F 56.8 °F 29.97 in Calm   1 mph 87% 0 in 0.00 W/m2 CLR
06:15 60.5 °F 56.6 °F 29.98 in Calm     87% 0 in 0.00 W/m2 CLR
06:20 60.4 °F 56.5 °F 29.98 in Calm     87% 0 in 7.00 W/m2 OVC
06:25 60.3 °F 56.4 °F 29.98 in Calm     87% 0 in 7.00 W/m2 OVC
06:30 60.2 °F 56.3 °F 29.98 in Calm     87% 0 in 12.00 W/m2 OVC
06:35 60.1 °F 56.2 °F 29.98 in Calm     87% 0 in 18.00 W/m2 CLR
06:40 60 °F 56.1 °F 29.98 in Calm   1 mph 87% 0 in 23.00 W/m2 CLR
06:45 60 °F 56.1 °F 29.98 in Calm     87% 0 in 30.00 W/m2 CLR
06:50 59.9 °F 56 °F 29.98 in Calm     87% 0 in 33.00 W/m2 CLR
06:55 60 °F 56.1 °F 29.98 in Calm     87% 0 in 39.00 W/m2 CLR
07:00 60 °F 56.1 °F 29.99 in Calm   2 mph 87% 0.01 in 42.00 W/m2 RA
07:05 60 °F 56.1 °F 29.99 in Calm   2 mph 87% 0 in 51.00 W/m2 RA
07:10 60 °F 56.1 °F 29.99 in Calm     87% 0 in 58.00 W/m2 FEW
07:15 60 °F 56.1 °F 29.99 in Calm     87% 0 in 63.00 W/m2 FEW
07:20 60.1 °F 56.2 °F 30.00 in Calm     87% 0 in 69.00 W/m2 SCT
07:25 60.2 °F 56.3 °F 30.00 in Calm   6 mph 87% 0 in 90.00 W/m2 FEW
07:30 60.4 °F 56.5 °F 30.00 in Calm     87% 0 in 120.00 W/m2 CLR
07:35 60.5 °F 56.6 °F 30.00 in Calm     87% 0 in 128.00 W/m2 CLR
07:40 60.7 °F 56.8 °F 30.01 in Calm     87% 0 in 105.00 W/m2 SCT
07:45 60.8 °F 56.9 °F 30.01 in Calm     87% 0 in 141.00 W/m2 FEW
07:50 60.9 °F 57 °F 30.01 in Calm     87% 0 in 151.00 W/m2 FEW
07:55 61.1 °F 57.2 °F 30.01 in Calm   3 mph 87% 0 in 172.00 W/m2 FEW
08:00 61.4 °F 57.5 °F 30.00 in Calm   5 mph 87% 0 in 156.00 W/m2 FEW
08:05 61.6 °F 57.7 °F 30.00 in NNW 2 mph 6 mph 87% 0 in 181.00 W/m2 CLR
08:10 62 °F 58.1 °F 30.00 in Calm   5 mph 87% 0 in 214.00 W/m2 CLR
08:15 62.4 °F 58.5 °F 30.00 in Calm   4 mph 87% 0 in 246.00 W/m2 CLR
08:20 63 °F 59 °F 30.00 in Calm   2 mph 87% 0 in 276.00 W/m2 CLR
08:25 63.4 °F 59.5 °F 30.00 in Calm   5 mph 87% 0 in 299.00 W/m2 CLR
08:30 63.9 °F 60 °F 30.00 in NW 3 mph 9 mph 87% 0 in 283.00 W/m2 CLR
08:35 64.1 °F 60.2 °F 30.00 in NNW 5 mph 9 mph 87% 0 in 260.00 W/m2 FEW
08:40 64.2 °F 60.2 °F 30.00 in Calm   10 mph 87% 0 in 257.00 W/m2 FEW
08:45 64.2 °F 60.3 °F 30.00 in NNW 2 mph 10 mph 87% 0 in 265.00 W/m2 FEW
08:50 64.5 °F 60.5 °F 30.00 in NNW 1 mph 5 mph 87% 0 in 306.00 W/m2 FEW
08:55 64.7 °F 60.7 °F 30.00 in NW 1 mph 5 mph 87% 0 in 346.00 W/m2 CLR
09:00 64.8 °F 60.9 °F 30.00 in NNW 2 mph 7 mph 87% 0 in 355.00 W/m2 CLR
09:05 65.1 °F 57.7 °F 30.00 in NNW 3 mph 8 mph 77% 0 in 341.00 W/m2 CLR
09:10 65.2 °F 57.8 °F 30.01 in North 1 mph 6 mph 77% 0 in 353.00 W/m2 CLR
09:15 65.4 °F 58 °F 30.01 in North 1 mph 6 mph 77% 0 in 320.00 W/m2 CLR
09:20 65.5 °F 58.1 °F 30.01 in Calm   7 mph 77% 0 in 316.00 W/m2 CLR
09:25 65.7 °F 58.3 °F 30.01 in NNW 1 mph 6 mph 77% 0 in 306.00 W/m2 CLR
09:30 65.8 °F 58.4 °F 30.01 in NNW 1 mph 6 mph 77% 0 in 315.00 W/m2 CLR
09:35 66 °F 58.6 °F 30.01 in NNW 1 mph 8 mph 77% 0 in 346.00 W/m2 CLR
09:40 66.1 °F 58.7 °F 30.01 in North 3 mph 8 mph 77% 0 in 371.00 W/m2 CLR
09:45 66.3 °F 58.9 °F 30.01 in North 2 mph 8 mph 77% 0 in 429.00 W/m2 CLR
09:50 66.5 °F 59.1 °F 30.00 in North 6 mph 12 mph 77% 0 in 517.00 W/m2 CLR
09:55 66.9 °F 59.4 °F 30.00 in Calm   9 mph 77% 0 in 357.00 W/m2 CLR
10:00 67.1 °F 59.7 °F 30.01 in NNW 2 mph 7 mph 77% 0 in 557.00 W/m2 CLR
10:05 67.9 °F 56.9 °F 30.00 in NNW 2 mph 8 mph 68% 0 in 605.00 W/m2 CLR
10:10 68.5 °F 57.6 °F 30.00 in North 2 mph 9 mph 68% 0 in 592.00 W/m2 CLR
10:15 69.2 °F 58.2 °F 30.00 in North 1 mph 7 mph 68% 0 in 610.00 W/m2 CLR
10:20 69.8 °F 58.8 °F 30.00 in North 5 mph 12 mph 68% 0 in 686.00 W/m2 CLR
10:25 69.5 °F 58.5 °F 30.01 in NNW 2 mph 9 mph 68% 0 in 388.00 W/m2 CLR
10:30 69 °F 58 °F 30.01 in NNW 5 mph 12 mph 68% 0 in 584.00 W/m2 CLR
10:35 69.2 °F 58.2 °F 30.00 in North 2 mph 8 mph 68% 0 in 605.00 W/m2 CLR
10:40 69.4 °F 58.4 °F 30.00 in North 2 mph 9 mph 68% 0 in 473.00 W/m2 CLR
10:45 69.6 °F 58.6 °F 30.00 in NNW 5 mph 12 mph 68% 0 in 455.00 W/m2 CLR
10:50 69.7 °F 58.7 °F 30.00 in NNW 6 mph 12 mph 68% 0 in 464.00 W/m2 CLR
10:55 69.7 °F 58.7 °F 30.00 in NNW 1 mph 12 mph 68% 0 in 515.00 W/m2 CLR
11:00 70.1 °F 59 °F 30.01 in Calm   4 mph 68% 0 in 582.00 W/m2 CLR
11:05 70.6 °F 54.1 °F 30.01 in North 6 mph 8 mph 56% 0 in 469.00 W/m2 CLR
11:10 70.3 °F 53.9 °F 30.01 in North 2 mph 10 mph 56% 0 in 522.00 W/m2 CLR
11:15 70.3 °F 53.9 °F 30.01 in NNW 3 mph 7 mph 56% 0 in 536.00 W/m2 CLR
11:20 70.3 °F 53.9 °F 30.01 in NNW 2 mph 6 mph 56% 0 in 533.00 W/m2 CLR
11:25 70.5 °F 54 °F 30.01 in Calm   4 mph 56% 0 in 522.00 W/m2 CLR
11:30 71 °F 54.6 °F 30.01 in NW 2 mph 5 mph 56% 0 in 554.00 W/m2 CLR
11:35 71 °F 54.5 °F 30.02 in NNW 3 mph 8 mph 56% 0 in 545.00 W/m2 CLR
11:40 70.7 °F 54.3 °F 30.02 in Calm   10 mph 56% 0 in 700.00 W/m2 CLR
11:45 71.3 °F 54.8 °F 30.02 in North 2 mph 10 mph 56% 0 in 642.00 W/m2 CLR
11:50 71.4 °F 54.9 °F 30.02 in North 3 mph 10 mph 56% 0 in 643.00 W/m2 CLR
11:55 71.6 °F 55.1 °F 30.02 in North 2 mph 10 mph 56% 0 in 763.00 W/m2 CLR
12:00 72.1 °F 55.5 °F 30.01 in NNE 2 mph 9 mph 56% 0 in 844.00 W/m2 CLR
12:05 72.6 °F 52.3 °F 30.01 in Calm   7 mph 49% 0 in 824.00 W/m2 CLR
12:10 72.5 °F 52.2 °F 30.01 in Calm   8 mph 49% 0 in 550.00 W/m2 CLR
12:15 72.7 °F 52.4 °F 30.01 in NNW 3 mph 12 mph 49% 0 in 508.00 W/m2 CLR
12:20 72.2 °F 52 °F 30.01 in NW 2 mph 6 mph 49% 0 in 621.00 W/m2 CLR
12:25 72.2 °F 52 °F 30.01 in NNW 1 mph 4 mph 49% 0 in 752.00 W/m2 CLR
12:30 72.4 °F 52.2 °F 30.01 in North 1 mph 7 mph 49% 0 in 786.00 W/m2 CLR
12:35 72.5 °F 52.2 °F 30.01 in NNE 3 mph 9 mph 49% 0 in 657.00 W/m2 CLR
12:40 72.6 °F 52.4 °F 30.00 in NE 1 mph 5 mph 49% 0 in 635.00 W/m2 CLR
12:45 73.1 °F 52.8 °F 30.01 in Calm   4 mph 49% 0 in 649.00 W/m2 CLR
12:50 72.9 °F 52.6 °F 30.01 in North 1 mph 9 mph 49% 0 in 566.00 W/m2 CLR
12:55 72.2 °F 52 °F 30.01 in NNW 1 mph 8 mph 49% 0 in 508.00 W/m2 CLR
13:00 72.2 °F 52 °F 30.01 in Calm   8 mph 49% 0 in 499.00 W/m2 CLR
13:05 72.4 °F 48.6 °F 30.01 in Calm   6 mph 43% 0 in 610.00 W/m2 CLR
13:10 72.3 °F 48.5 °F 30.00 in NW 3 mph 7 mph 43% 0 in 715.00 W/m2 CLR
13:15 72.6 °F 48.9 °F 30.00 in North 5 mph 9 mph 43% 0 in 722.00 W/m2 CLR
Zumbrota Weather